Lancaster Airport Lancaster US
ICAO: KLNS
IATA: LNS
Category: Medium
Scheduled Services: Yes

Elevation: 403 ft
TransAlt. 18000 ft.

Airport Communications:
HARRISBURG APP/DEP:126.45
ATIS:125.675
CTAF:120.9
GND:121.8
WILLIAMSPORT RDO:117.3
TWR:120.9
UNICOM:122.95

KLNS Zoom In..

If you have problems with the map follow the link
https://www.worldairports.se/pages/airport.php?
ICAO=KLNS

Runways:

(A) RW 08 length 6933 ft width 150 ft
ILS 108.70 / hdg 77

(B) RW 13 length 4102 ft width 100 ft
---- / hdg 128

(C) RW 26 length 6933 ft width 150 ft
---- / hdg 257

(D) RW 31 length 4102 ft width 100 ft
---- / hdg 308

Location; KLNS
Day. 24 / Time. 10.53 Zulu
* Altimeter: 30.25
* Temperature: -01° c. -30.2°f.
* Wind from: 000° Speed 00 kn.
Dewpoint: -07° c.
Visibility: 10 Statute Miles.
Clouds: Clear (automated report).

KLNS 241053Z 00000KT 10SM CLR M01/M07 A3025 RMK AO2 SLP245 T10111067


Wind - Calm.

 
 
jpsmedia.com for Web Design worldairports.se 2019   terms of use